Napier (NZNR)

Aerodrome — Elev 6
New Zealand
S039.27.56.999 E176.52.12.000
Loading chart...

Current Weather

NZNR 161600Z 35012KT 20KM BKN150 14/07 Q1011 RMK AUTO VATSIM USE ONLY

Published 1 days 1 hours 43 minutes ago

Airport Activity

Loading chart...
Loading chart...

Positions

CallsignRadio Name / Freq / Voice Room / TypeFrequencyVoice RoomType
NZOH_CTR Ohakea Control
125.100
nzoh_ctr
125.100nzoh_ctr
NZNR_TWR Napier Tower
124.800
nznr_twr
124.800nznr_twr
NZNR_ATIS Napier ATIS
121.800
nznr_atis
121.800nznr_atis
UNICOM NZZC UNICOM
122.800
unicom_nzzc
122.800unicom_nzzc

Charts